Location: Boncourt
(49.6160°N, 3.9448°E)
Time: 11:54:49
(UTC+00:00)

SL-08 R/B - Pass Details

Date: 09 February 2023
Orbit: 672 x 737 km, 98.5° (Epoch: 24 March)

Event Time Altitude Azimuth Distance (km) Brightness Sun altitude
Rises 17:49:02 0° 12° (NNE) 3,185 6.5 -9.6°
Reaches altitude 10° 17:51:21 10° 10° (N) 2,259 5.7 -9.9°
Maximum altitude 17:56:17 67° 289° (WNW) 806 3.9 -10.7°
Drops below altitude 10° 18:01:09 10° 208° (SSW) 2,234 6.4 -11.5°
Sets 18:03:25 0° 205° (SSW) 3,146 7.2 -11.9°
